User: anonymous   Login
Location: Lac Lasalle
(46.0398°N, 74.1576°W)
Time: 19:54:20
(UTC-04:00)
Language:

ISS - Orbit

View from above orbital plane
View from above orbital plane
View from above satellite
View from above satellite

Ground track
Ground track

The orbit data is extracted from the following two-line orbital elements,

1 25544U 98067A   19113.50108790  .00016717  00000-0  10270-3 0  9046
2 25544  51.6389 273.0330 0001396 215.3510 144.7549 15.52587374  6757
Epoch (UTC): 23 April 2019 12:01:33
Eccentricity: 0.0001396
inclination: 51.6389°
perigee height: 408 km
apogee height: 410 km
right ascension of ascending node: 273.0330°
argument of perigee: 215.3510°
revolutions per day: 15.52587374
mean anomaly at epoch: 144.7549°
orbit number at epoch: 675

The dashed part of the orbit path shows where the satellite is in the earth's shadow,  

DLR